Location: Goettingen
(51.5300°N, 9.9433°E)
Time: 02:49:57
(UTC+01:00)

ISS - Pass Details

Date: 28 November 2021
Orbit: 417 x 423 km, 51.6° (Epoch: 28 November)

Event Time Altitude Azimuth Distance (km) Brightness Sun altitude
Rises 17:50:17 0° 263° (W) 2,377 1.9 -13.9°
Reaches altitude 10° 17:52:23 10° 263° (W) 1,513 0.4 -14.2°
Maximum altitude 17:55:47 90° 338° (NNW) 429 -3.8 -14.7°
Enters shadow 17:57:13 32° 84° (E) 748 -3.1 -14.9°
